Aeroporto :
LOGIN :

Iscrizione | Disclaimer

   EN    FR    IT 

 










Sommario :    VFR   VFR Marginale   IFR   IFR Intensivo   IFR Molto Intensivo
Visibilità : 
Base nubi : 
>= 8 km
>= 3000ft
5 / 8 km
1000 / 3000 ft
1500m / 5 km
500 / 1000 ft
800 / 1500m
200 / 500 ft
< 800m
< 200 ft
Simboli :   Temporali  Nebbia  Neve Forte  Precipitazioni Forti  Vento > 20 kt
SIGMETs :   Varie  Temporali  Ghiacco  Turbolenza  Onda orograficha  Ceneri Vulcaniche






- Altitudine del aeroporto : 138 ft
- Codice IATA : RLG


ETNL - Rostock Laage

ULTIMO METAR :
  • 251820Z 33007KT 9999 FEW030 14/09 Q1030 BLU+

METARs OBSOLETI :
  • 251720Z 33009KT 9999 FEW024 SCT055 15/09 Q1030 BLU+
  • 251620Z 31010KT 9999 FEW026 BKN051 14/08 Q1029 BLU

TAF TAF ETNL
Valido dal 25 a 17 ore il 26 a 05 ore UTC


251628Z 2517/2605 33008KT 9999 NSW SCT030
TEMPO 2521/2605 32005KT 5000 MIFG FEW030
PROB30 2600/2605 30003KT 0500 FG SKC BY ETGL



MetMap, La meteo Aeronautica in un colpo d'occhio ! - Copyright ORBIFLY Dicembre 2007 - Disclaimer

ORBIFLY MET'MAP TEAM :

Programmazione e sviluppo : Alexandra Zaïnal
Concezione : Baudouin d'Aumeries
Aiuto per la programmazione : Marc-Olivier Méhu
Supporto tecnico e logistico : Manuel Goepfert
Aiuto per la traduzione : Arnaldo La Scala

Contatto : metmap@orbifly.com




FONTI E CREDITI :

   NOAA